Location: Buch
(49.7331°N, 12.1098°E)
Time: 04:34:38
(UTC+00:00)

Landsat 7 - Pass Details

Date: 30 September 2021
Orbit: 701 x 703 km, 98.0° (Epoch: 22 October)

Event Time Altitude Azimuth Distance (km) Brightness Sun altitude
Exits shadow 18:50:16 33° 68° (ENE) 1,175 4.6 -19.7°
Maximum altitude 18:50:23 33° 65° (ENE) 1,174 4.6 -19.7°
Drops below altitude 10° 18:54:39 10° 2° (N) 2,182 6.6 -20.3°
Sets 18:57:04 0° 353° (N) 3,104 7.5 -20.7°
